Orbital Elements at Epoch 2459200.5 (2020-Dec-17.0) TDB
Reference: JPL 17 (heliocentric ecliptic J2000)
Element | Value | Uncertainty (1-sigma) | Units |
e | .1301482810074738 | 3.9895e-08 | |
a | 2.420086399204579 | 9.8697e-09 | au |
q | 2.105116314458536 | 9.7187e-08 | au |
i | 2.884977988855502 | 5.354e-06 | deg |
node | 153.057090851491 | 6.6868e-05 | deg |
peri | 36.93591542772169 | 6.9557e-05 | deg |
M | 149.8398786702437 | 2.0823e-05 | deg |
tp | 2458628.139512073423 (2019-May-24.63951207) | 7.7784e-05 | TDB |
period | 1375.133091952287 3.76 | 8.4122e-06 2.303e-08 | d yr |
n | .261792841803338 | 1.6015e-09 | deg/d |
Q | 2.735056483950622 | 1.1154e-08 | au |
|
| | Orbit Determination Parameters
Additional Information
|